Wind_Speed
41 40 35 32 36 36 37 38 34 26 26 39 33 38 37 38 34 37 34 34 37 37 38 38 34 36 36 36 36 37 38 41 44 46 47 49 50 51 50 51 53 55 56 58
43 35 30 36 37 35 36 39 36 29 29 38 34 35 37 32 34 38 33 37 37 40 43 40 37 39 40 41 41 42 44 46 48 50 51 53 54 55 54 55 57 57 58 60
39 34 37 35 36 38 36 40 38 37 34 36 38 38 38 36 36 39 40 34 39 40 43 45 41 44 45 45 47 47 48 50 51 52 55 55 56 58 58 58 60 60 60 60
44 43 38 39 38 39 40 40 44 45 38 40 36 46 41 39 41 41 39 38 41 42 42 45 47 48 49 50 51 51 53 52 53 55 57 58 59 61 59 60 61 60 61 61
44 49 45 45 43 40 44 46 47 50 46 47 45 46 42 43 44 44 52 46 47 44 47 48 47 49 51 53 52 51 54 56 56 58 59 60 60 60 60 61 59 57 55 55
48 45 48 47 47 49 45 47 47 52 55 55 50 47 49 41 41 52 52 55 49 46 48 50 48 48 52 55 54 54 54 57 58 59 60 60 59 59 58 56 55 52 51 52
48 46 46 49 50 50 49 52 53 54 57 56 51 52 54 48 57 56 60 60 61 58 53 55 54 57 58 60 59 59 58 57 56 56 56 57 56 56 55 54 50 46 49 54
51 50 48 52 54 45 51 49 49 47 55 56 48 54 41 52 64 67 59 58 61 59 57 57 59 57 56 55 56 56 55 54 55 56 57 56 55 53 52 45 44 50 51 52
48 50 51 52 46 48 46 53 44 50 55 57 59 58 49 54 58 60 64 63 60 58 57 56 55 55 51 48 47 49 50 48 49 50 48 46 46 46 45 46 51 52 55 41
48 53 50 52 48 46 46 48 51 54 54 54 56 52 43 44 53 61 59 57 58 58 57 55 53 52 51 51 48 46 44 44 43 43 40 40 44 46 49 41 49 61 51 45
45 50 50 56 51 44 48 49 49 51 54 52 51 48 49 52 53 57 60 59 57 56 57 55 55 56 55 53 50 47 43 39 38 38 39 39 40 44 45 57 56 47 49 49
49 53 53 48 45 55 46 47 50 53 52 52 52 54 53 54 53 52 53 55 60 61 61 59 57 53 50 50 46 43 39 38 40 37 36 42 51 55 53 48 52 51 49 52
48 50 51 50 49 52 52 52 51 52 50 50 47 50 55 54 56 55 52 52 56 59 57 53 50 46 44 42 41 39 36 42 41 53 53 51 47 32 44 42 40 49 51 48
49 51 50 48 47 40 37 38 40 41 46 48 50 52 50 55 52 52 51 52 50 51 50 47 45 47 46 44 43 40 38 44 49 48 43 48 36 45 46 43 46 48 45 40
51 51 51 52 46 52 54 49 48 51 52 52 51 53 47 49 50 45 42 44 43 44 46 46 50 47 50 43 32 33 44 47 46 44 40 38 39 45 43 52 51 48 39 38
53 52 54 55 56 57 56 51 53 52 45 47 43 44 41 45 48 43 45 43 43 45 46 46 47 51 55 40 42 44 44 46 42 44 40 41 47 43 53 53 49 39 35 36
52 53 53 55 52 53 57 48 55 55 56 56 59 57 55 57 60 62 56 57 57 56 56 57 57 57 58 57 56 52 48 43 37 36 39 47 48 49 46 46 40 36 35 36
51 53 47 45 47 51 52 49 53 50 48 47 55 57 60 54 49 49 58 54 48 45 41 41 40 40 43 46 46 41 36 35 38 43 42 43 46 45 44 41 39 37 36 37
49 48 50 49 45 42 41 43 40 46 50 48 47 47 42 40 40 38 38 37 33 32 34 35 36 36 37 37 36 33 37 38 38 41 43 44 44 44 44 42 38 39 38 39
52 52 54 53 52 49 42 38 40 40 44 42 44 42 33 30 28 29 26 25 26 28 30 31 33 36 39 41 42 43 46 47 47 46 44 42 41 39 37 37 39 38 35 38
48 49 53 52 52 49 35 34 40 38 35 35 35 30 24 19 16 14 13 16 18 21 23 25 28 31 35 40 43 46 45 43 41 40 40 38 34 35 37 39 38 36 40 40
49 48 52 51 53 53 37 35 36 27 30 32 31 26 19 16 12 13 15 15 18 22 24 26 27 32 36 37 38 39 37 35 32 33 34 36 37 37 37 37 37 34 36 36
40 39 46 46 50 46 37 34 31 29 27 30 27 26 21 17 14 15 14 17 20 26 30 33 32 36 37 37 38 38 36 37 38 37 36 35 35 34 34 33 33 35 35 37
38 38 36 33 31 30 28 30 31 27 28 33 28 27 32 27 27 22 22 25 26 29 29 35 40 42 38 36 35 37 38 36 30 29 30 29 30 31 33 36 37 36 36 36
38 39 35 32 32 30 36 30 32 29 34 35 31 30 33 38 35 33 31 32 36 36 38 38 43 44 33 32 29 27 19 22 26 30 32 31 31 32 34 36 34 38 35 36
38 37 26 28 36 37 33 35 33 33 33 30 30 27 30 35 38 40 39 40 41 42 45 48 46 42 34 30 21 19 21 22 24 27 30 31 31 33 34 36 38 36 35 36
Wind_Direction
266 267 268 266 266 266 266 262 259 255 252 263 256 258 259 256 255 255 266 267 267 265 261 260 263 265 265 265 268 274 280 281 282 283 283 283 283 284 285 286 288 289 289 288
268 265 265 259 267 271 263 261 257 251 250 259 256 258 262 260 265 270 257 262 265 266 266 265 267 267 267 269 270 272 274 276 277 279 280 280 281 283 284 285 286 286 286 285
267 268 261 262 267 269 267 261 259 254 245 250 259 257 262 264 261 261 267 268 269 270 271 270 267 266 267 270 272 273 273 274 275 278 278 279 281 282 284 286 284 283 282 281
265 265 264 268 261 268 266 260 257 256 256 253 255 255 259 264 269 260 259 268 271 271 269 269 269 269 270 270 271 273 274 275 276 276 279 279 280 282 284 283 282 283 284 285
267 264 264 264 267 258 260 259 258 260 259 259 256 257 260 270 267 272 271 265 267 270 271 271 270 271 271 271 271 271 274 276 278 278 279 280 281 282 281 279 279 279 279 281
267 263 267 263 260 258 255 259 261 258 258 257 261 268 261 267 265 272 271 270 272 271 275 275 274 274 273 271 270 271 272 273 275 276 278 279 278 276 276 277 276 277 280 282
264 260 259 263 258 258 259 261 261 260 258 263 261 264 266 270 262 265 270 275 278 279 273 272 273 274 273 274 274 274 274 275 275 274 273 273 275 276 274 275 278 282 274 282
259 259 255 260 265 257 257 257 259 261 261 263 257 261 262 254 264 272 272 271 274 276 277 278 279 278 278 275 273 274 275 275 272 272 273 274 274 276 277 278 279 276 280 284
253 254 257 258 256 257 259 262 262 260 259 260 260 262 256 264 266 268 271 273 278 279 276 276 276 276 278 277 274 272 272 270 270 270 270 270 271 272 274 278 278 278 280 297
256 259 262 260 259 258 257 258 259 263 264 266 267 265 263 261 264 268 273 274 273 274 276 279 281 281 281 281 281 282 281 278 274 271 271 270 270 272 271 278 272 272 278 299
258 260 256 260 261 259 259 256 258 258 263 263 265 263 259 261 262 269 272 272 274 276 279 279 277 277 279 281 283 281 278 271 264 266 270 270 271 270 271 267 269 275 297 286
254 258 260 258 261 260 257 261 261 256 260 262 264 260 259 262 262 264 267 274 280 278 276 277 278 280 282 283 285 282 280 279 278 283 277 277 268 262 263 267 284 283 278 278
258 255 256 257 256 260 261 256 254 259 262 262 264 265 269 268 265 267 271 275 275 276 279 280 280 281 281 281 281 281 286 280 284 274 264 261 265 261 269 276 281 276 275 281
255 256 257 256 255 255 264 268 270 267 263 267 266 263 267 272 272 272 275 272 273 276 276 277 278 282 286 284 283 282 282 275 273 249 252 267 261 255 271 280 277 273 279 281
253 254 253 253 253 252 251 253 256 259 269 272 272 268 270 265 264 267 269 273 273 275 276 277 278 280 277 280 274 280 277 261 261 259 265 273 265 267 274 275 275 280 281 284
257 257 259 259 258 257 254 254 257 262 266 264 259 260 255 257 266 262 264 262 269 273 274 273 272 265 265 251 256 277 282 283 283 283 279 248 259 266 265 271 274 278 283 285
261 260 259 260 260 265 264 263 271 269 270 274 273 269 268 280 285 277 281 281 280 283 285 284 281 277 273 261 277 285 286 288 278 269 251 247 246 257 266 271 276 280 281 281
261 261 258 261 262 265 269 266 273 278 281 280 283 283 278 287 290 291 288 289 290 288 282 280 277 273 270 274 278 278 271 265 254 253 256 258 260 267 274 276 279 276 276 276
262 258 260 260 259 263 264 272 284 278 275 283 291 292 289 286 282 282 282 289 280 272 268 266 264 263 262 263 261 259 262 263 262 257 257 262 268 270 272 275 274 273 274 276
258 258 253 256 258 259 264 271 268 279 283 287 289 288 281 276 272 265 279 278 277 275 273 273 274 273 271 266 261 258 259 261 264 268 268 268 268 269 270 270 271 273 280 278
254 259 254 254 256 260 265 269 272 277 296 295 288 277 268 254 249 262 291 291 288 281 280 277 274 270 268 266 267 267 264 264 266 267 267 266 267 272 271 269 270 273 273 279
244 251 253 256 255 257 259 261 272 286 294 292 277 264 239 243 266 284 285 294 299 296 295 314 297 294 275 267 268 270 270 268 265 262 262 262 261 267 273 270 276 275 278 279
233 234 251 251 255 258 258 260 275 278 281 277 264 254 237 243 266 266 270 292 301 308 308 307 311 305 295 278 266 265 267 269 270 269 270 271 271 269 269 272 276 278 277 278
232 220 236 226 238 235 248 259 264 268 269 267 259 254 246 250 262 273 274 287 294 300 309 302 305 305 301 279 268 266 270 269 266 272 275 275 273 270 270 273 274 277 280 280
221 230 230 232 237 237 245 252 256 264 270 272 264 268 257 252 256 268 273 279 287 293 296 302 302 296 298 276 269 272 264 269 274 275 276 275 273 274 269 272 277 279 281 279
214 211 216 237 237 241 246 249 258 264 267 261 260 268 263 262 266 271 273 281 289 291 291 296 299 290 290 270 237 251 268 277 279 281 278 276 274 272 270 270 273 274 275 276
Height
5765 5766 5769 5770 5768 5767 5769 5769 5766 5770 5771 5764 5768 5769 5771 5769 5767 5768 5770 5770 5770 5772 5770 5770 5773 5772 5771 5771 5771 5771 5771 5769 5767 5766 5764 5762 5759 5757 5756 5755 5753 5752 5749 5747
5756 5758 5762 5760 5761 5761 5760 5761 5761 5762 5763 5760 5762 5762 5762 5764 5764 5761 5763 5763 5764 5763 5762 5764 5766 5764 5763 5762 5762 5761 5760 5758 5756 5755 5753 5750 5748 5746 5745 5743 5741 5739 5736 5733
5749 5752 5751 5752 5754 5753 5755 5754 5755 5753 5754 5753 5752 5754 5754 5755 5756 5754 5754 5757 5755 5755 5754 5754 5756 5754 5753 5753 5752 5751 5749 5747 5745 5743 5740 5739 5737 5735 5734 5731 5728 5725 5722 5719
5739 5740 5743 5742 5745 5746 5746 5747 5744 5744 5746 5747 5748 5742 5745 5746 5745 5745 5746 5748 5747 5746 5745 5744 5745 5744 5742 5741 5740 5739 5737 5735 5733 5731 5729 5727 5725 5722 5721 5718 5715 5713 5710 5707
5733 5731 5732 5732 5735 5735 5736 5735 5737 5736 5738 5738 5738 5734 5742 5738 5736 5737 5733 5737 5736 5737 5734 5734 5735 5733 5732 5730 5728 5725 5724 5723 5721 5718 5717 5714 5711 5710 5707 5704 5701 5699 5696 5693
5720 5720 5719 5723 5723 5722 5725 5726 5727 5726 5725 5727 5732 5730 5734 5733 5725 5719 5722 5722 5727 5727 5725 5721 5723 5722 5720 5718 5717 5714 5712 5710 5708 5705 5702 5700 5697 5695 5692 5690 5688 5686 5685 5681
5706 5707 5709 5710 5711 5712 5715 5715 5715 5713 5710 5717 5721 5717 5722 5716 5713 5712 5711 5710 5710 5710 5712 5710 5711 5708 5705 5705 5704 5701 5698 5695 5693 5690 5687 5685 5683 5681 5679 5676 5675 5673 5672 5670
5692 5696 5697 5699 5700 5700 5701 5702 5704 5700 5703 5705 5706 5703 5707 5700 5698 5697 5701 5699 5696 5695 5694 5692 5691 5692 5692 5692 5691 5688 5684 5682 5679 5678 5675 5672 5670 5668 5667 5665 5664 5663 5661 5659
5679 5681 5680 5685 5688 5687 5692 5687 5693 5684 5687 5686 5693 5697 5694 5684 5685 5686 5685 5683 5682 5684 5683 5680 5679 5678 5676 5676 5674 5672 5670 5668 5666 5664 5662 5660 5658 5655 5655 5654 5652 5650 5649 5647
5666 5667 5668 5670 5674 5675 5677 5677 5675 5670 5673 5672 5679 5682 5681 5667 5667 5670 5671 5671 5671 5669 5668 5666 5665 5664 5662 5662 5661 5659 5658 5655 5653 5651 5649 5647 5646 5644 5644 5641 5638 5636 5634 5634
5652 5652 5655 5654 5659 5664 5661 5661 5661 5660 5659 5658 5661 5665 5659 5660 5657 5656 5658 5655 5656 5656 5656 5653 5650 5648 5647 5647 5646 5645 5644 5642 5640 5638 5636 5635 5634 5633 5630 5628 5626 5624 5623 5622
5638 5638 5640 5643 5642 5643 5647 5646 5646 5642 5648 5646 5645 5650 5643 5646 5646 5644 5643 5643 5642 5639 5639 5637 5635 5634 5633 5634 5634 5632 5631 5630 5627 5625 5623 5620 5621 5618 5617 5616 5614 5613 5613 5610
5623 5624 5627 5629 5630 5630 5630 5629 5632 5631 5633 5634 5634 5636 5629 5633 5633 5633 5631 5628 5627 5624 5624 5624 5623 5621 5621 5620 5620 5620 5619 5618 5617 5612 5612 5612 5611 5606 5605 5604 5603 5603 5601 5598
5609 5612 5615 5618 5617 5620 5617 5617 5620 5619 5617 5620 5620 5622 5621 5615 5619 5619 5617 5613 5615 5612 5612 5612 5611 5608 5608 5608 5607 5608 5608 5607 5606 5605 5602 5603 5600 5597 5596 5595 5594 5591 5588 5586
5597 5600 5603 5604 5603 5604 5606 5607 5606 5607 5606 5604 5609 5605 5613 5605 5602 5608 5604 5600 5602 5600 5600 5600 5598 5598 5595 5595 5593 5594 5595 5595 5596 5594 5593 5593 5589 5588 5584 5583 5582 5579 5577 5575
5586 5589 5592 5590 5593 5591 5591 5599 5594 5596 5596 5590 5593 5594 5597 5592 5589 5595 5592 5591 5591 5588 5588 5589 5587 5586 5585 5583 5582 5582 5583 5582 5581 5582 5582 5581 5582 5578 5573 5571 5570 5568 5567 5566
5574 5577 5579 5578 5582 5578 5574 5594 5581 5584 5582 5579 5577 5585 5587 5579 5573 5578 5577 5577 5577 5574 5573 5573 5574 5573 5571 5569 5567 5565 5566 5567 5567 5567 5566 5566 5567 5562 5560 5559 5559 5558 5557 5555
5565 5565 5567 5567 5568 5562 5572 5577 5570 5569 5570 5569 5567 5566 5571 5568 5562 5560 5560 5562 5560 5560 5558 5557 5556 5556 5555 5554 5553 5552 5553 5554 5554 5554 5553 5553 5551 5550 5549 5549 5549 5548 5547 5546
5555 5556 5555 5554 5557 5557 5558 5568 5556 5556 5559 5562 5556 5555 5557 5554 5551 5549 5547 5549 5547 5547 5546 5546 5545 5544 5543 5542 5542 5541 5541 5541 5542 5541 5540 5540 5539 5539 5540 5539 5539 5538 5537 5536
5539 5542 5544 5542 5544 5545 5553 5554 5546 5548 5547 5548 5546 5545 5543 5542 5541 5539 5540 5539 5539 5538 5537 5536 5535 5534 5533 5532 5531 5530 5529 5530 5530 5528 5528 5528 5528 5529 5529 5529 5529 5528 5527 5526
5524 5526 5527 5531 5531 5534 5547 5541 5535 5541 5543 5540 5538 5534 5534 5533 5533 5533 5532 5532 5531 5529 5528 5526 5525 5523 5521 5520 5520 5520 5519 5519 5519 5518 5518 5519 5520 5520 5519 5519 5517 5517 5517 5515
5511 5514 5515 5520 5520 5521 5535 5532 5528 5531 5528 5528 5528 5527 5527 5526 5527 5526 5525 5524 5523 5522 5520 5518 5516 5514 5511 5510 5509 5509 5509 5509 5509 5509 5509 5509 5509 5509 5508 5508 5507 5506 5505 5504
5498 5503 5506 5508 5512 5516 5520 5522 5520 5520 5521 5522 5521 5521 5521 5521 5520 5519 5518 5517 5515 5513 5511 5509 5506 5504 5500 5498 5498 5499 5499 5500 5499 5499 5498 5498 5498 5498 5498 5498 5497 5496 5495 5495
5487 5494 5496 5501 5501 5506 5508 5511 5511 5513 5512 5512 5513 5514 5514 5514 5513 5511 5510 5508 5507 5504 5502 5500 5497 5493 5490 5488 5487 5488 5488 5488 5488 5489 5489 5489 5488 5488 5488 5488 5487 5486 5486 5484
5478 5480 5486 5490 5492 5496 5498 5501 5502 5502 5504 5504 5505 5505 5505 5505 5504 5503 5501 5499 5497 5495 5492 5489 5487 5483 5480 5478 5478 5479 5479 5480 5481 5480 5480 5479 5479 5478 5478 5478 5477 5477 5476 5475
5468 5474 5475 5480 5483 5486 5490 5491 5492 5493 5495 5496 5496 5496 5496 5495 5495 5493 5492 5489 5487 5484 5481 5477 5474 5472 5471 5469 5469 5471 5472 5472 5472 5471 5471 5470 5469 5469 5469 5469 5468 5467 5466 5465